Terminal Aerodrome Forecast
Issued by NWS Portland, ME

Home | Current Version | Previous Version | Text Only | Print | Product List | Glossary On
Versions: 1 2 3 4 5 6 7 8 9 10 11 12 13 14 15 16 17 18 19 20 21
000
FTUS41 KGYX 031731
TAFCON
TAF
KCON 031731Z 0318/0418 21012G23KT P6SM SCT050
     FM040000 17005KT P6SM SCT050 BKN200
      TEMPO 0401/0405 5SM -TSRA BR OVC035CB
     FM040500 VRB03KT P6SM -SHRA BKN040
     FM040700 23006KT P6SM SCT060=

USA.gov is the U.S. government's official web portal to all federal, state and local government web resources and services.